User: anonymous   Login
Location: Catstown
(52.4386°N, 7.2633°W)
Time: 07:33:30
(UTC+00:00)
Language:

COSMOS 2406 - Orbit

View from above orbital plane
View from above orbital plane
View from above satellite
View from above satellite

Ground track
Ground track

The orbit data is extracted from the following two-line orbital elements,

1 28352U 04021A   20336.53926492 -.00000004 +00000-0 +23818-4 0  9992
2 28352 071.0011 006.6363 0015097 347.8001 012.2752 14.11670455849094
Epoch (UTC): 01 December 2020 12:56:32
Eccentricity: 0.0015097
inclination: 71.0011°
perigee height: 843 km
apogee height: 864 km
right ascension of ascending node: 6.6363°
argument of perigee: 347.8001°
revolutions per day: 14.11670455
mean anomaly at epoch: 12.2752°
orbit number at epoch: 84909

The dashed part of the orbit path shows where the satellite is in the earth's shadow,  

DLR